CW4167 Weather Reports


time (UTC)temp
C
wind
direction
speed
KPH
gust
KPH
rain 1hr
cm
rain 24hr
cm
rain mn
cm
humidity
%
barometer
mb
20260510032705 7 134 9.7 11.3 0.00 0.00 0.00 79 1013.9
20260510032205 7 135 11.3 16.1 0.00 0.00 0.00 79 1013.9
20260510031706 7 124 11.3 12.9 0.00 0.00 0.00 79 1013.9
20260510025206 7 129 11.3 12.9 0.00 0.00 0.00 80 1014.1
20260510022706 6 127 11.3 11.3 0.00 0.00 0.00 81 1014.4
20260510022206 6 133 9.7 11.3 0.00 0.00 0.00 81 1014.4
20260510021705 6 135 11.3 12.9 0.00 0.00 0.00 81 1014.4
20260510020207 5 133 6.4 11.3 0.00 0.00 0.00 82 1014.7
20260510014205 5 127 4.8 8.0 0.00 0.00 0.00 80 1014.7
20260510012205 5 124 4.8 8.0 0.00 0.00 0.00 79 1014.7
20260510011706 5 125 3.2 4.8 0.00 0.00 0.00 79 1014.9
20260510005206 5 129 4.8 8.0 0.00 0.00 0.00 78 1015.4
20260510004706 5 125 4.8 9.7 0.00 0.00 0.00 78 1015.4
20260510004206 5 130 4.8 8.0 0.00 0.00 0.00 78 1015.4
20260510003206 5 122 6.4 8.0 0.00 0.00 0.00 79 1015.6
20260510002707 5 131 4.8 9.7 0.00 0.00 0.00 79 1015.7
20260510001705 5 124 8.0 8.0 0.00 0.00 0.00 78 1016.0
20260510001206 5 144 8.0 8.0 0.00 0.00 0.00 78 1016.0
20260509234705 5 137 8.0 11.3 0.00 0.00 0.00 78 1016.3
20260509233707 5 136 9.7 11.3 0.00 0.00 0.00 78 1016.5
20260509232709 5 137 9.7 11.3 0.00 0.00 0.00 77 1016.5
20260509231205 5 146 4.8 4.8 0.00 0.00 0.00 77 1016.9
20260509225205 5 147 0.0 0.0 0.00 0.00 0.00 77 1017.1
20260509224205 5 147 0.0 0.0 0.00 0.00 0.00 76 1017.1
20260509223705 5 147 0.0 0.0 0.00 0.00 0.00 76 1017.1
20260509222206 5 147 0.0 3.2 0.00 0.00 0.00 75 1017.2
20260509221705 5 147 3.2 4.8 0.00 0.00 0.00 75 1017.2
20260509221205 5 147 3.2 8.0 0.00 0.00 0.00 75 1017.2
20260509220205 5 150 4.8 8.0 0.00 0.00 0.00 74 1017.3
20260509215208 5 153 3.2 3.2 0.00 0.00 0.00 75 1017.4
20260509214206 5 153 4.8 8.0 0.00 0.00 0.00 74 1017.4
20260509213205 6 145 8.0 9.7 0.00 0.00 0.00 74 1017.4
20260509211705 6 133 4.8 4.8 0.00 0.00 0.00 73 1017.5
20260509211206 6 133 3.2 4.8 0.00 0.00 0.00 73 1017.5
20260509210205 6 133 3.2 4.8 0.00 0.00 0.00 72 1017.6
20260509205206 7 127 1.6 4.8 0.00 0.00 0.00 70 1017.6
20260509204704 7 127 0.0 0.0 0.00 0.00 0.00 70 1017.6
20260509204206 7 127 0.0 4.8 0.00 0.00 0.00 70 1017.6
20260509203705 7 127 3.2 8.0 0.00 0.00 0.00 69 1017.7
20260509203205 8 129 3.2 4.8 0.00 0.00 0.00 69 1017.6
20260509202706 8 136 4.8 4.8 0.00 0.00 0.00 68 1017.6
20260509202205 8 140 4.8 9.7 0.00 0.00 0.00 68 1017.5
20260509201205 8 119 8.0 9.7 0.00 0.00 0.00 68 1017.5
20260509195704 9 127 8.0 9.7 0.00 0.00 0.00 68 1017.6
20260509195206 9 129 8.0 9.7 0.00 0.00 0.00 68 1017.7
20260509194705 9 131 8.0 9.7 0.00 0.00 0.00 67 1017.7
20260509194206 10 126 6.4 9.7 0.00 0.00 0.00 67 1017.7
20260509192706 10 123 9.7 11.3 0.00 0.00 0.00 65 1017.6
20260509185206 12 115 11.3 16.1 0.00 0.00 0.00 58 1017.3
20260509184207 12 112 11.3 20.9 0.00 0.00 0.00 55 1017.2
20260509182705 13 118 11.3 12.9 0.00 0.00 0.00 52 1017.2
20260509181205 14 109 11.3 14.5 0.00 0.00 0.00 50 1017.2
20260509180206 14 118 14.5 20.9 0.00 0.00 0.00 49 1017.2
20260509175707 14 114 14.5 20.9 0.00 0.00 0.00 49 1017.2
20260509175205 14 103 12.9 22.5 0.00 0.00 0.00 49 1017.2
20260509174205 15 119 11.3 12.9 0.00 0.00 0.00 48 1017.3
20260509172704 15 97 16.1 24.1 0.00 0.00 0.00 47 1017.3
20260509172204 15 122 11.3 16.1 0.00 0.00 0.00 47 1017.4
20260509171705 15 112 14.5 22.5 0.00 0.00 0.00 46 1017.4
20260509171204 15 100 16.1 20.9 0.00 0.00 0.00 45 1017.4
20260509170205 15 115 16.1 25.7 0.00 0.00 0.00 45 1017.5
20260509164705 15 130 14.5 24.1 0.00 0.00 0.00 45 1017.6
20260509163705 15 122 22.5 27.4 0.00 0.00 0.00 44 1017.6
20260509162204 15 125 16.1 22.5 0.00 0.00 0.00 43 1017.8
20260509161704 15 113 16.1 25.7 0.00 0.00 0.00 43 1017.8
20260509161205 15 112 22.5 29.0 0.00 0.00 0.00 41 1017.9
20260509160705 15 99 25.7 32.2 0.00 0.00 0.00 41 1017.9
20260509160204 15 105 22.5 29.0 0.00 0.00 0.00 41 1017.9
20260509154204 16 111 20.9 25.7 0.00 0.00 0.00 42 1018.2
20260509153704 16 121 20.9 29.0 0.00 0.00 0.00 41 1018.2
20260509153204 16 114 20.9 33.8 0.00 0.00 0.00 41 1018.3
20260509151706 16 109 20.9 33.8 0.00 0.00 0.00 42 1018.4
20260509150705 16 108 16.1 24.1 0.00 0.00 0.00 42 1018.5
20260509150204 16 124 16.1 25.7 0.00 0.00 0.00 43 1018.5
20260509145704 16 127 24.1 27.4 0.00 0.00 0.00 42 1018.5
20260509145205 16 108 22.5 29.0 0.00 0.00 0.00 41 1018.6
20260509144704 16 115 22.5 29.0 0.00 0.00 0.00 42 1018.6
20260509142204 16 102 20.9 29.0 0.00 0.00 0.00 40 1018.8
20260509141704 16 119 20.9 27.4 0.00 0.00 0.00 40 1018.8
20260509140704 16 107 16.1 32.2 0.00 0.00 0.00 40 1019.0
20260509140205 16 99 19.3 27.4 0.00 0.00 0.00 39 1019.0
20260509133205 17 113 24.1 37.0 0.00 0.00 0.00 39 1019.1
20260509131704 17 124 12.9 20.9 0.00 0.00 0.00 39 1019.5
20260509131206 17 97 19.3 27.4 0.00 0.00 0.00 37 1019.5
20260509130704 17 99 19.3 32.2 0.00 0.00 0.00 39 1019.7
20260509130203 17 140 11.3 22.5 0.00 0.00 0.00 39 1019.7
20260509125704 17 113 11.3 24.1 0.00 0.00 0.00 38 1019.9
20260509125204 17 119 8.0 12.9 0.00 0.00 0.00 37 1019.9
20260509123204 17 137 12.9 24.1 0.00 0.00 0.00 39 1020.1
20260509120704 17 163 12.9 20.9 0.00 0.00 0.00 37 1020.4
20260509120205 17 127 19.3 25.7 0.00 0.00 0.00 38 1020.4
20260509115706 17 147 11.3 20.9 0.00 0.00 0.00 39 1020.4
20260509115206 16 148 17.7 27.4 0.00 0.00 0.00 37 1020.4
20260509114205 16 96 14.5 22.5 0.00 0.00 0.00 37 1020.5
20260509113705 16 128 9.7 20.9 0.00 0.00 0.00 37 1020.5
20260509112705 16 81 8.0 22.5 0.00 0.00 0.00 37 1020.5
20260509111706 16 94 19.3 25.7 0.00 0.00 0.00 36 1020.5
20260509110206 16 127 11.3 20.9 0.00 0.00 0.00 38 1020.6
20260509104706 16 91 9.7 16.1 0.00 0.00 0.00 38 1020.8
20260509103206 16 143 9.7 20.9 0.00 0.00 0.00 39 1020.8
20260509102706 16 105 16.1 25.7 0.00 0.00 0.00 38 1020.8
20260509100206 16 126 9.7 16.1 0.00 0.00 0.00 39 1020.9
20260509094706 16 65 8.0 12.9 0.00 0.00 0.00 38 1020.9
20260509094206 15 100 12.9 24.1 0.00 0.00 0.00 40 1020.8
20260509093206 15 119 17.7 25.7 0.00 0.00 0.00 38 1020.8
20260509091705 15 46 9.7 20.9 0.00 0.00 0.00 40 1021.0
20260509091206 15 38 14.5 22.5 0.00 0.00 0.00 38 1020.9
20260509090207 15 31 14.5 22.5 0.00 0.00 0.00 40 1021.0
20260509085706 15 60 9.7 14.5 0.00 0.00 0.00 40 1021.0
20260509082205 14 55 9.7 16.1 0.00 0.00 0.00 43 1021.2
20260509081705 14 71 9.7 12.9 0.00 0.00 0.00 44 1021.1
20260509081206 13 79 8.0 12.9 0.00 0.00 0.00 43 1021.2
20260509080705 13 51 14.5 22.5 0.00 0.00 0.00 44 1021.2
20260509080206 13 50 4.8 12.9 0.00 0.00 0.00 45 1021.2
20260509075206 13 73 11.3 16.1 0.00 0.00 0.00 46 1021.2
20260509074206 13 77 11.3 16.1 0.00 0.00 0.00 45 1021.3
20260509073206 13 97 8.0 11.3 0.00 0.00 0.00 47 1021.4
20260509071705 12 55 9.7 11.3 0.00 0.00 0.00 49 1021.5
20260509071205 12 45 6.4 9.7 0.00 0.00 0.00 50 1021.5
20260509065706 12 80 8.0 12.9 0.00 0.00 0.00 53 1021.5
20260509065206 11 92 8.0 12.9 0.00 0.00 0.00 54 1021.5
20260509062706 10 81 14.5 22.5 0.00 0.00 0.00 56 1021.5
20260509062207 10 72 9.7 14.5 0.00 0.00 0.00 58 1021.5
20260509061705 10 72 8.0 12.9 0.00 0.00 0.00 59 1021.5
20260509060205 10 81 9.7 12.9 0.00 0.00 0.00 62 1021.5
20260509055706 10 84 12.9 14.5 0.00 0.00 0.00 62 1021.6
20260509055205 9 70 8.0 12.9 0.00 0.00 0.00 63 1021.5
20260509053205 8 67 12.9 16.1 0.00 0.00 0.00 66 1021.6
20260509052705 7 63 8.0 16.1 0.00 0.00 0.00 68 1021.6
20260509052205 7 68 9.7 14.5 0.00 0.00 0.00 70 1021.6
20260509051206 6 61 9.7 12.9 0.00 0.00 0.00 73 1021.6
20260509050705 6 65 4.8 8.0 0.00 0.00 0.00 73 1021.6
20260509045705 5 79 4.8 8.0 0.00 0.00 0.00 73 1021.6
20260509044205 5 89 0.0 0.0 0.00 0.00 0.00 73 1021.6
20260509043705 4 89 0.0 1.6 0.00 0.00 0.00 74 1021.7
20260509043205 3 89 0.0 1.6 0.00 0.00 0.00 77 1021.7
20260509042205 2 89 1.6 1.6 0.00 0.00 0.00 77 1021.6
20260509040705 2 89 0.0 1.6 0.00 0.00 0.00 75 1021.6
20260509035705 2 89 0.0 0.0 0.00 0.00 0.00 75 1021.6